Location: Krasnoyarskiy
(51.1133°N, 71.6497°E)
Time: 23:56:30
(UTC+00:00)

CZ-3 R/B - Pass Details

Date: 27 September 2022
Orbit: 442 x 10146 km, 28.3° (Epoch: 03 December)

Event Time Altitude Azimuth Distance (km) Brightness Sun altitude
Rises 00:26:18 0° 240° (WSW) 9,491 6.0 -7.2°
Reaches altitude 10° 00:37:41 10° 226° (SW) 6,227 5.2 -5.4°
Maximum altitude 00:46:34 17° 194° (SSW) 3,739 4.4 -4.0°
Drops below altitude 10° 00:51:30 10° 156° (SSE) 3,174 4.5 -3.3°
Sets 00:54:30 0° 133° (SE) 3,493 5.2 -2.8°
